Location: Gleizolles
(44.4833°N, 6.7667°E)
Time: 16:43:12
(UTC+00:00)

Explorer 7 - Pass Details

Date: 16 June 2024
Orbit: 465 x 619 km, 50.3° (Epoch: 12 July)

Event Time Altitude Azimuth Distance (km) Brightness Sun altitude
Rises 15:58:01 0° 289° (WNW) 2,532 11.2 33.0°
Reaches altitude 10° 16:00:21 10° 300° (WNW) 1,638 10.3 32.5°
Maximum altitude 16:03:43 33° 6° (N) 807 7.9 31.9°
Drops below altitude 10° 16:07:03 10° 72° (ENE) 1,618 8.8 31.3°
Sets 16:09:20 0° 83° (E) 2,496 9.7 30.9°
